DateTimeUTC,F1_A11,F1_S11,BsB_S11,BsG_S11,BsR_S11,BbsB_S11,BbsG_S11,BbsR_S11,BaB_A11,BaG_A11,BaR_A11,Tu_S11,T_S11,Uu_S11,U_S11,P_S11,T1_A11
2021-07-07T10:00:00Z,00000200,20000000,,,,,,,-000.08,0000.01,0000.17,19.5,26.0,04.9,03.3,0657.0,31.2
2021-07-07T10:01:00Z,00000200,20000000,,,,,,,0000.26,-000.02,0000.30,19.4,26.0,04.9,03.3,0657.1,31.2
2021-07-07T10:02:00Z,00000200,20000000,,,,,,,-000.39,-000.29,-000.14,19.4,26.0,04.9,03.3,0657.0,31.2
2021-07-07T10:03:00Z,00000200,60000000,,,,,,,0000.17,0000.44,0000.08,19.4,26.0,04.9,03.3,0657.0,31.1
2021-07-07T10:04:00Z,00000200,40000000,0000.31,0000.11,0000.11,0000.30,0000.05,0000.13,0000.41,-000.09,0000.20,19.3,25.7,05.2,03.5,0657.9,31.1
2021-07-07T10:05:00Z,00000200,00000000,0000.78,0000.10,0000.13,0000.08,0000.21,-000.09,0000.04,0000.06,0000.19,19.3,25.7,05.3,03.6,0658.0,31.2
2021-07-07T10:06:00Z,00000200,00000000,0000.75,0000.33,0000.19,0000.78,-000.10,0000.51,0000.40,0000.51,0000.13,19.4,25.7,05.3,03.6,0657.9,31.2
2021-07-07T10:07:00Z,00000200,00000000,0000.77,0000.42,-000.11,0000.35,-000.06,-000.03,-000.21,0000.07,0000.15,19.4,25.7,05.4,03.7,0658.0,31.2
2021-07-07T10:08:00Z,00000200,00000000,0000.65,0000.32,0000.40,0000.20,0000.25,0000.39,0000.20,-000.24,-000.10,19.5,25.7,05.4,03.7,0658.0,31.2
2021-07-07T10:09:00Z,00000200,00000000,0000.09,0000.51,0000.16,0000.52,0000.33,-000.04,0000.00,0000.23,0000.01,19.5,25.8,05.5,03.8,0658.0,31.2
2021-07-07T10:10:00Z,00000200,00000000,0000.73,0000.21,0000.13,-000.10,-000.02,-000.01,0000.36,0000.11,0000.21,19.6,25.8,05.4,03.7,0658.0,31.2
2021-07-07T10:11:00Z,00000200,00000000,0001.33,0000.26,0000.19,-000.12,0000.12,0000.11,-000.26,0000.31,-000.10,19.5,25.8,05.4,03.7,0658.0,31.2
2021-07-07T10:12:00Z,00000200,00000000,0001.23,0000.25,0000.15,0000.03,-000.14,0000.21,0000.33,0000.19,0000.50,19.5,25.8,05.5,03.8,0658.0,31.2
2021-07-07T10:13:00Z,00000200,00000000,0000.69,0000.42,0000.14,-000.63,0000.34,-000.14,0000.12,-000.48,-000.39,19.4,25.7,05.5,03.8,0658.1,31.2
2021-07-07T10:14:00Z,00000200,00000000,0000.75,0000.18,0000.37,0001.00,0000.09,0000.07,0000.14,0000.32,0000.09,19.4,25.7,05.6,03.8,0658.0,31.2
2021-07-07T10:15:00Z,00000200,00000000,0000.45,0000.33,0000.43,0000.28,0000.07,0000.62,-000.09,0000.22,0000.06,19.4,25.7,05.7,03.9,0658.0,31.2
2021-07-07T10:16:00Z,00000200,00000000,0000.51,0000.48,0000.26,0000.38,0000.05,0000.14,0000.22,0000.05,0000.33,19.3,25.6,05.6,03.8,0658.0,31.1
2021-07-07T10:17:00Z,00000200,00000000,0000.53,0000.15,0000.26,0000.21,-000.03,-000.00,-000.20,-000.29,-000.37,19.3,25.6,05.7,03.9,0658.0,31.2
2021-07-07T10:18:00Z,00000200,00000000,-000.05,0000.18,0000.25,0000.83,0000.06,0000.27,0000.27,0000.42,0000.62,19.2,25.6,05.6,03.8,0657.9,31.1
2021-07-07T10:19:00Z,00000200,00000000,0000.26,0000.16,0000.13,0000.12,0000.11,0000.39,0000.13,-000.37,-000.36,19.2,25.5,05.8,03.9,0658.0,31.1
2021-07-07T10:20:00Z,00000200,00000000,0000.98,0000.10,-000.17,-000.21,0000.11,0000.06,0000.39,0000.43,0000.48,19.2,25.5,05.9,04.0,0657.9,31.1
2021-07-07T10:21:00Z,00000200,00000000,0000.35,0000.35,0000.14,0000.40,0000.34,0000.14,-000.05,-000.31,-000.12,19.2,25.5,05.7,03.9,0657.9,31.2
2021-07-07T10:22:00Z,00000200,00000000,0000.88,0000.31,0000.14,0000.16,0000.08,0000.14,0000.00,0000.50,-000.07,19.3,25.6,05.8,03.9,0657.9,31.2
2021-07-07T10:23:00Z,00000200,00000000,-000.10,0000.14,0000.19,-000.14,-000.00,-000.08,0000.18,0000.12,0000.32,19.4,25.6,05.8,04.0,0657.9,31.2
2021-07-07T10:24:00Z,00000200,00000000,0000.17,0000.36,0000.04,0000.35,0000.04,0000.03,0000.02,0000.24,-000.10,19.5,25.7,05.9,04.0,0657.9,31.2
2021-07-07T10:25:00Z,00000200,00000000,0000.03,0000.62,0000.04,0000.18,-000.14,0000.25,0000.10,0000.11,0000.23,19.5,25.7,05.8,04.0,0657.9,31.2
2021-07-07T10:26:00Z,00000200,00000000,0000.56,0000.38,0000.10,-000.31,0000.19,0000.07,0000.17,-000.09,-000.17,19.6,25.7,05.8,04.0,0658.0,31.2
2021-07-07T10:27:00Z,00000200,00000000,0000.35,0000.17,0000.02,0000.46,0000.22,0000.30,0000.08,0000.00,0000.02,19.6,25.7,05.8,04.0,0657.9,31.2
2021-07-07T10:28:00Z,00000200,00000000,0000.51,0000.06,0000.33,0000.29,0000.07,0000.35,-000.27,-000.08,-000.10,19.5,25.7,05.8,04.0,0657.9,31.2
2021-07-07T10:29:00Z,00000200,00000000,0000.18,0000.35,0000.17,0000.36,0000.19,-000.04,0000.58,0000.03,0000.48,19.5,25.7,05.8,04.0,0657.9,31.2
2021-07-07T10:30:00Z,00000200,00000000,0000.13,0000.44,0000.21,-000.74,0000.18,0000.12,-000.21,0000.28,-000.16,19.4,25.7,05.8,04.0,0657.9,31.2
2021-07-07T10:31:00Z,00000200,00000000,0000.59,0000.57,0000.50,0000.76,0000.25,0000.09,0000.11,-000.15,-000.06,19.4,25.6,05.9,04.0,0657.9,31.2
2021-07-07T10:32:00Z,00000200,00000000,0000.55,-000.20,0000.12,0000.54,0000.16,-000.05,-000.07,0000.13,0000.24,19.4,25.6,06.0,04.1,0657.9,31.2
2021-07-07T10:33:00Z,00000200,00000000,0001.26,0000.49,0000.18,0000.21,0000.11,0000.19,-000.20,-000.21,-000.31,19.3,25.6,05.9,04.0,0657.9,31.2
2021-07-07T10:34:00Z,00000200,00000000,0000.22,0000.24,-000.13,0000.09,0000.12,-000.02,0000.39,0000.16,0000.38,19.3,25.6,06.0,04.1,0657.9,31.2
2021-07-07T10:35:00Z,00000200,00000000,0000.38,0000.37,0000.39,0000.09,-000.02,0000.19,0000.15,0000.34,0000.10,19.3,25.5,06.0,04.1,0657.8,31.2
2021-07-07T10:36:00Z,00000200,00000000,0001.33,0000.14,-000.02,0000.45,-000.27,0000.04,0000.10,0000.09,-000.19,19.3,25.5,06.0,04.1,0657.8,31.2
2021-07-07T10:37:00Z,00000200,00000000,0000.42,0000.03,0000.06,-000.22,-000.02,0000.06,0000.02,0000.08,-000.14,19.4,25.6,06.0,04.1,0657.7,31.2
2021-07-07T10:38:00Z,00000200,00000000,0001.30,0000.38,0000.25,0000.03,-000.01,0000.01,-000.25,-000.09,0000.27,19.5,25.6,05.9,04.1,0657.8,31.2
2021-07-07T10:39:00Z,00000200,00000000,0000.44,0000.06,0000.31,0000.60,0000.04,0000.15,0000.59,0000.39,0000.68,19.5,25.7,05.9,04.1,0657.8,31.2
2021-07-07T10:40:00Z,00000200,00000000,0000.25,0000.03,-000.17,0000.38,0000.19,0000.02,0000.03,-000.10,-000.49,19.6,25.7,05.9,04.1,0657.9,31.2
2021-07-07T10:41:00Z,00000200,00000000,0000.20,0000.01,0000.06,-000.23,0000.05,-000.03,-000.39,0000.17,0000.25,19.7,25.7,05.9,04.0,0657.8,31.2
2021-07-07T10:42:00Z,00000200,00000000,0000.76,0000.33,0000.22,0000.02,0000.01,0000.25,0000.14,-000.28,-000.14,19.7,25.8,05.9,04.1,0657.8,31.2
2021-07-07T10:43:00Z,00000200,00000000,0000.09,0000.23,0000.21,-000.07,0000.08,0000.11,0000.07,-000.11,-000.12,19.7,25.8,05.9,04.1,0657.8,31.2
2021-07-07T10:44:00Z,00000200,00000000,0000.25,0000.03,0000.20,-000.02,-000.11,0000.10,0000.30,0000.08,0000.22,19.6,25.8,05.8,04.0,0657.9,31.2
2021-07-07T10:45:00Z,00000200,00000000,0000.42,0000.43,0000.17,0000.52,0000.14,-000.03,-000.19,-000.02,-000.06,19.6,25.7,05.9,04.0,0657.9,31.2
2021-07-07T10:46:00Z,00000200,00000000,0000.23,0000.13,-000.11,0000.22,0000.00,-000.21,0000.24,0000.43,-000.30,19.5,25.7,05.9,04.1,0657.9,31.2
2021-07-07T10:47:00Z,00000200,00000000,0000.48,0000.23,0000.33,0000.42,0000.05,0000.33,-000.27,0000.02,0000.46,19.5,25.7,06.0,04.1,0657.8,31.2
2021-07-07T10:48:00Z,00000200,00000000,0000.88,0000.17,0000.21,0000.26,0000.17,0000.41,0000.09,-000.18,-000.29,19.5,25.7,06.0,04.1,0657.8,31.2
2021-07-07T10:49:00Z,00000200,00000000,0000.56,0000.09,0000.04,-000.09,0000.22,0000.14,0000.12,0000.09,0000.29,19.4,25.6,05.9,04.1,0657.8,31.2
